Date String (YYYY-MM-DD hh:mm:ss) UTC,Instrument flags,absolute air pressure of the measurement (hPa),sample flow rate (lpm),inlet stack bypass flow (lpm),air temperature of the measurement (°C),ambient temperature measured by the external sensor (°C),aerosol sample conditioner tube jacket temperature (°C),OPC LED temperature (°C),internal box temperature (°C),relative humidity of the measurement (%),span deviation,mass concentration of particles derived from Lorenz-Mie calculation of OPC scattering (μg/m³),mass concentration of particles derived from Lorenz-Mie calculation of OPC scattering (μg/m³),mass concentration of particles derived from Lorenz-Mie calculation of OPC scattering (μg/m³)
DateTimeUTC,F1_M11,P_M11,Q1_M11,Q2_M11,T1_M11,T2_M11,T3_M11,T4_M11,T5_M11,U1_M11,ZSPAN_M11,X0_M11,X2_M11,X1_M11
2024-02-07 09:00:00,SystemResetWarning,0815.6,5.00,000.00,020.6,019.8,000.0,029.0,022.3,17.5,0000.0,0009.00,0003.67,0003.50
2024-02-07 09:01:00,SystemResetWarning,0815.6,5.01,000.00,020.6,019.8,000.0,029.0,022.3,17.6,0000.0,0009.67,0003.70,0003.51
2024-02-07 09:02:00,SystemResetWarning,0815.6,5.00,000.00,020.6,019.9,000.0,029.0,022.3,17.6,0000.0,0009.54,0003.72,0003.52
2024-02-07 09:03:00,SystemResetWarning,0815.6,4.99,000.00,020.6,019.9,000.0,029.0,022.3,17.6,0000.0,0009.40,0003.73,0003.54
2024-02-07 09:04:00,SystemResetWarning,0815.6,5.00,000.00,020.6,019.8,000.0,029.0,022.3,17.7,0000.0,0009.12,0003.78,0003.56
2024-02-07 09:05:00,SystemResetWarning,0815.5,5.01,000.00,020.6,019.8,000.0,029.0,022.3,17.6,0000.0,0009.11,0003.82,0003.59
2024-02-07 09:06:00,SystemResetWarning,0815.5,5.01,000.00,020.6,019.8,000.0,029.0,022.3,17.6,0000.0,0009.01,0003.86,0003.61
2024-02-07 09:07:00,SystemResetWarning,0815.4,5.00,000.00,020.6,019.8,000.0,029.0,022.3,17.6,0000.0,0009.15,0003.93,0003.66
2024-02-07 09:08:00,SystemResetWarning,0815.4,5.00,000.00,020.6,019.8,000.0,029.0,022.3,17.6,0000.0,0009.18,0004.00,0003.71
2024-02-07 09:09:00,SystemResetWarning,0815.4,5.00,000.00,020.5,019.8,000.0,029.0,022.3,17.6,0000.0,0008.28,0004.06,0003.75
2024-02-07 09:10:00,SystemResetWarning,0815.4,5.00,000.00,020.5,019.8,000.0,029.0,022.3,17.6,0000.0,0008.34,0004.11,0003.77
2024-02-07 09:11:00,SystemResetWarning,0815.5,5.00,000.00,020.5,019.8,000.0,029.0,022.3,17.6,0000.0,0008.33,0004.15,0003.79
2024-02-07 09:12:00,SystemResetWarning,0815.6,5.00,000.00,020.5,019.8,000.0,029.0,022.3,17.6,0000.0,0007.47,0004.16,0003.81
2024-02-07 09:13:00,SystemResetWarning,0815.6,4.99,000.00,020.5,019.8,000.0,029.0,022.3,17.5,0000.0,0007.53,0004.18,0003.83
2024-02-07 09:14:00,SystemResetWarning,0815.6,4.99,000.00,020.5,019.8,000.0,029.0,022.3,17.4,0000.0,0007.37,0004.18,0003.83
2024-02-07 09:15:00,SystemResetWarning,0815.6,5.01,000.00,020.5,019.8,000.0,028.9,022.2,17.3,0000.0,0007.80,0004.18,0003.84
2024-02-07 09:16:00,SystemResetWarning,0815.7,5.01,000.00,020.5,019.7,000.0,028.9,022.2,17.4,0000.0,0008.49,0004.15,0003.82
2024-02-07 09:17:00,SystemResetWarning,0815.6,5.01,000.00,020.5,019.7,000.0,029.0,022.2,17.4,0000.0,0008.36,0004.09,0003.78
2024-02-07 09:18:00,SystemResetWarning,0815.6,4.98,000.00,020.5,019.7,000.0,028.9,022.2,17.4,0000.0,0008.24,0004.02,0003.72
2024-02-07 09:19:00,SystemResetWarning,0815.6,5.00,000.00,020.5,019.7,000.0,028.9,022.2,17.4,0000.0,0008.05,0003.89,0003.63
2024-02-07 09:20:00,SystemResetWarning,0815.6,5.01,000.00,020.5,019.7,000.0,028.9,022.2,17.4,0000.0,0007.92,0003.82,0003.58
2024-02-07 09:21:00,SystemResetWarning,0815.5,5.01,000.00,020.4,019.6,000.0,028.9,022.2,17.2,0000.0,0008.08,0003.74,0003.53
2024-02-07 09:22:00,SystemResetWarning,0815.4,5.00,000.00,020.4,019.6,000.0,028.9,022.2,17.0,0000.0,0007.88,0003.68,0003.49
2024-02-07 09:23:00,SystemResetWarning,0815.4,4.99,000.00,020.4,019.6,000.0,028.9,022.1,16.8,0000.0,0007.89,0003.64,0003.45
2024-02-07 09:24:00,SystemResetWarning,0815.3,4.99,000.00,020.4,019.6,000.0,028.9,022.1,16.8,0000.0,0007.77,0003.58,0003.41
2024-02-07 09:25:00,SystemResetWarning,0815.2,5.00,000.00,020.4,019.6,000.0,028.9,022.1,16.8,0000.0,0007.88,0003.56,0003.36
2024-02-07 09:26:00,SystemResetWarning,0815.2,5.00,000.00,020.4,019.6,000.0,028.9,022.1,16.9,0000.0,0007.68,0003.49,0003.30
2024-02-07 09:27:00,SystemResetWarning,0815.2,5.00,000.00,020.4,019.6,000.0,028.9,022.1,16.9,0000.0,0006.08,0003.41,0003.23
2024-02-07 09:28:00,SystemResetWarning,0815.2,5.00,000.00,020.4,019.6,000.0,028.9,022.1,16.9,0000.0,0006.00,0003.36,0003.17
2024-02-07 09:29:00,SystemResetWarning,0815.2,5.00,000.00,020.4,019.6,000.0,028.9,022.1,17.0,0000.0,0005.89,0003.30,0003.12
2024-02-07 09:30:00,SystemResetWarning,0815.1,5.00,000.00,020.4,019.6,000.0,028.8,022.1,17.2,0000.0,0005.93,0003.28,0003.07
2024-02-07 09:31:00,SystemResetWarning,0815.1,5.00,000.00,020.3,019.6,000.0,028.8,022.1,17.3,0000.0,0005.95,0003.27,0002.99
2024-02-07 09:32:00,SystemResetWarning,0815.2,4.99,000.00,020.3,019.6,000.0,028.8,022.1,17.3,0000.0,0005.17,0003.24,0002.91
2024-02-07 09:33:00,SystemResetWarning,0815.1,4.99,000.00,020.3,019.6,000.0,028.8,022.1,17.3,0000.0,0004.96,0003.21,0002.86
2024-02-07 09:34:00,SystemResetWarning,0815.2,5.00,000.00,020.3,019.6,000.0,028.8,022.1,17.3,0000.0,0004.78,0003.20,0002.86
2024-02-07 09:35:00,SystemResetWarning,0815.1,5.01,000.00,020.3,019.6,000.0,028.8,022.0,17.3,0000.0,0004.84,0003.21,0002.87
2024-02-07 09:36:00,SystemResetWarning,0815.2,5.00,000.00,020.3,019.6,000.0,028.8,022.0,17.3,0000.0,0004.66,0003.21,0002.89
2024-02-07 09:37:00,SystemResetWarning,0815.1,5.00,000.00,020.3,019.6,000.0,028.8,022.0,17.4,0000.0,0004.35,0003.23,0002.93
2024-02-07 09:38:00,SystemResetWarning,0815.2,5.00,000.00,020.3,019.6,000.0,028.8,022.0,17.4,0000.0,0004.47,0003.28,0003.00
2024-02-07 09:39:00,SystemResetWarning,0815.1,5.00,000.00,020.3,019.6,000.0,028.8,022.0,17.2,0000.0,0004.53,0003.31,0003.07
2024-02-07 09:40:00,SystemResetWarning,0815.1,4.99,000.00,020.3,019.6,000.0,028.7,022.0,17.1,0000.0,0005.13,0003.35,0003.12
2024-02-07 09:41:00,SystemResetWarning,0815.1,5.01,000.00,020.3,019.6,000.0,028.7,022.0,17.1,0000.0,0006.11,0003.39,0003.17
2024-02-07 09:42:00,SystemResetWarning,0815.1,5.02,000.00,020.3,019.6,000.0,028.7,022.0,17.2,0000.0,0006.71,0003.44,0003.21
2024-02-07 09:43:00,SystemResetWarning,0815.0,4.99,000.00,020.3,019.5,000.0,028.7,022.0,17.2,0000.0,0006.67,0003.44,0003.23
2024-02-07 09:44:00,SystemResetWarning,0814.9,5.00,000.00,020.3,019.5,000.0,028.7,021.9,17.2,0000.0,0006.59,0003.43,0003.22
2024-02-07 09:45:00,SystemResetWarning,0814.9,4.99,000.00,020.2,019.5,000.0,028.7,021.9,17.3,0000.0,0006.62,0003.43,0003.20
2024-02-07 09:46:00,SystemResetWarning,0814.9,5.00,000.00,020.2,019.5,000.0,028.7,021.9,17.2,0000.0,0006.58,0003.40,0003.16
2024-02-07 09:47:00,SystemResetWarning,0814.9,5.01,000.00,020.2,019.4,000.0,028.7,021.9,17.3,0000.0,0006.44,0003.36,0003.13
2024-02-07 09:48:00,SystemResetWarning,0814.9,5.01,000.00,020.2,019.4,000.0,028.7,021.9,17.2,0000.0,0006.48,0003.35,0003.12
2024-02-07 09:49:00,SystemResetWarning,0814.9,4.99,000.00,020.2,019.4,000.0,028.7,021.9,17.2,0000.0,0006.33,0003.32,0003.11
2024-02-07 09:50:00,SystemResetWarning,0815.0,4.99,000.00,020.2,019.4,000.0,028.6,021.9,17.2,0000.0,0006.34,0003.33,0003.11
2024-02-07 09:51:00,SystemResetWarning,0814.9,5.01,000.00,020.2,019.4,000.0,028.6,021.9,17.1,0000.0,0006.07,0003.33,0003.09
2024-02-07 09:52:00,SystemResetWarning,0814.9,5.00,000.00,020.2,019.4,000.0,028.6,021.9,16.8,0000.0,0005.72,0003.30,0003.04
2024-02-07 09:53:00,SystemResetWarning,0814.9,5.00,000.00,020.2,019.4,000.0,028.6,021.8,16.7,0000.0,0005.22,0003.26,0003.01
2024-02-07 09:54:00,SystemResetWarning,0814.9,5.00,000.00,020.2,019.4,000.0,028.6,021.8,16.7,0000.0,0005.37,0003.26,0003.01
2024-02-07 09:55:00,SystemResetWarning,0814.9,5.00,000.00,020.2,019.4,000.0,028.6,021.8,16.7,0000.0,0005.35,0003.25,0003.02
2024-02-07 09:56:00,SystemResetWarning,0814.9,5.00,000.00,020.1,019.4,000.0,028.6,021.8,16.7,0000.0,0005.20,0003.19,0002.94
2024-02-07 09:57:00,SystemResetWarning,0814.9,5.00,000.00,020.1,019.4,000.0,028.6,021.8,16.7,0000.0,0005.13,0003.15,0002.87
2024-02-07 09:58:00,SystemResetWarning,0815.0,5.00,000.00,020.1,019.4,000.0,028.6,021.8,16.8,0000.0,0005.02,0003.10,0002.80
2024-02-07 09:59:00,SystemResetWarning,0814.9,5.00,000.00,020.1,019.4,000.0,028.6,021.8,16.9,0000.0,0004.85,0002.99,0002.70
